LiveATC.Net - Listen to live air traffic control over the Internet!


ICAO: ENTC  IATA: TOS   Airport: Tromso Airport
City: Langnes
Country: Norway   Continent: Europe
ENTC METAR Weather: ENTC 190450Z VRB02KT 9999 FEW009 SCT016 BKN028 03/02 Q1012 RMK WIND 2600FT 03013KT
ENTC Flight Activity (FlightAware)
ENTC Tower/App
Feed Status: DOWN
Last heard on: 2017-10-17 13:43:01 (1 days 15 hours 43 minutes ago)
ENTC Tower/App Audio Archives
FacilityFrequency
Langnes Tower118.300
Langnes VDF (Approach)123.750


NOTICE

Unauthorized use prohibited. See LiveATC.net Terms of Service


Find LiveATC Audio Streams


Airport/ARTCC Code

Frequency Search
(e.g., 124.400, 128.75)
Site-wide search
 


Browse LiveATC Feeds
LiveATC Coverage Map
Top 50 LiveATC Feeds
Bad Weather Areas

LiveATC FAQ
Offer a LiveATC Feed
Contact LiveATC.net
Press Inquiries

LiveATC on iPhone
LiveATC on Android

Windows Phone
Windows 8/10

LiveATC Mobile
(Mobile browser)

ATC Audio Archives
Interesting Recordings

LiveATC Forums


Home Page
About LiveATC.net
Make a Donation
LiveATC Store

Terms of Use
Privacy Policy

Canadian Air Freqs

AIRMETs/SIGMETs

FAA Airport Status
Nat'l Airspace Status
Arrival Demand Charts


Server Software By:
Icecast.org
Liquidsoap